Home   Weather   Turku   Past weeks

Flag for Finland Past Weather in Turku, Finland — Yesterday and Last 2 Weeks

Now
50 °F

Fog.


Feels Like: 49 °F
Forecast: 50 / 61 °F
Wind: 3 mph from Southeast

Location: Turku Airport

Current Time: Sep 26, 2016 at 8:32:10 AM

Latest Report: Sep 26, 2016 at 7:50 AM


Visibility: 0 mi

Pressure: 30.24 "Hg

Humidity: 100%

Dew Point: 50 °F

Location of TurkuLocation

Past Weather in Turku — Graph

°F

Turku Temperature Yesterday

Maximum temperature yesterday: 63 °F (at 1:20 PM)
Minimum temperature yesterday: 50 °F (at 2:50 AM)
Average temperature yesterday: 57 °F

High & Low Weather Summary for the Past Weeks

 TemperatureHumidityPressure
High70 °F (Sep 11, 12:50 PM)100% (Sep 11, 7:20 AM)30.27 "Hg (Sep 11, 7:20 AM)
Low30 °F (Sep 18, 6:50 AM)33% (Sep 13, 5:20 PM)29.89 "Hg (Sep 11, 7:50 PM)
Average51 °F78%30.12 "Hg
* Reported Sep 11 7:20 AM — Sep 26 7:20 AM, Turku, Weather by CustomWeather, © 2016

Note: Actual official high and low records may vary slightly from our data, if they occured in-between our weather recording intervals... More about our weather records

Advertising

Turku Weather History for the Previous 24 Hours

Scroll right to see more
 ConditionsComfort  
Time TempWeatherWind HumidityBarometerVisibility
7:20 AM
Mon, Sep 26
48 °FFog.2 mph100%30.24 "Hg0 mi
6:50 AM48 °FFog.3 mph100%30.24 "Hg0 mi
6:20 AM46 °FFog.3 mph100%30.21 "Hg0 mi
5:50 AM48 °FFog.2 mph100%30.21 "Hg0 mi
5:20 AM50 °FFog.3 mph100%30.21 "Hg1 mi
4:50 AM52 °FFog.3 mph100%30.21 "Hg1 mi
4:20 AM54 °FFog.3 mph100%30.24 "Hg1 mi
3:50 AM54 °FFog.3 mph100%30.24 "Hg1 mi
3:20 AM54 °FPassing clouds.3 mph100%30.24 "HgN/A
2:50 AM54 °FFog.3 mph100%30.24 "Hg3 mi
2:20 AM52 °FClear.3 mph100%30.24 "Hg10 mi
1:50 AM52 °FClear.3 mph100%30.24 "Hg10 mi
9:50 PM
Sun, Sep 25
54 °FPassing clouds.3 mph100%30.21 "HgN/A
9:20 PM55 °FClear.5 mph94%30.21 "Hg10 mi
8:50 PM55 °FClear.3 mph88%30.21 "Hg10 mi
8:20 PM55 °FPassing clouds.5 mph88%30.18 "HgN/A
7:50 PM57 °FPassing clouds.5 mph77%30.18 "HgN/A
7:20 PM59 °FPassing clouds.6 mph72%30.18 "HgN/A
6:50 PM59 °FPassing clouds.6 mph72%30.18 "HgN/A
6:20 PM61 °FPassing clouds.7 mph68%30.18 "HgN/A
5:50 PM63 °FPassing clouds.8 mph59%30.18 "HgN/A
5:20 PM63 °FPassing clouds.8 mph59%30.18 "HgN/A
4:50 PM63 °FPassing clouds.10 mph59%30.18 "HgN/A
4:20 PM63 °FPassing clouds.12 mph59%30.18 "HgN/A
3:50 PM63 °FSunny.13 mph59%30.18 "Hg10 mi
3:20 PM63 °FPassing clouds.12 mph64%30.18 "HgN/A
2:50 PM61 °FPassing clouds.13 mph63%30.18 "HgN/A
2:20 PM61 °FPartly sunny.13 mph68%30.18 "HgN/A
1:50 PM61 °FOvercast.10 mph68%30.18 "HgN/A
1:20 PM63 °FMore clouds than sun.10 mph64%30.18 "HgN/A
12:50 PM61 °FPartly sunny.10 mph68%30.18 "HgN/A
12:20 PM61 °FMore clouds than sun.10 mph72%30.15 "HgN/A
11:50 AM61 °FOvercast.10 mph72%30.15 "HgN/A
11:20 AM59 °FPartly sunny.9 mph77%30.15 "HgN/A
10:50 AM59 °FPartly sunny.8 mph77%30.15 "HgN/A
10:20 AM59 °FOvercast.7 mph77%30.15 "HgN/A
9:50 AM57 °FPartly sunny.7 mph82%30.15 "HgN/A
9:20 AM57 °FPassing clouds.6 mph82%30.15 "HgN/A
8:50 AM55 °FOvercast.6 mph88%30.15 "HgN/A
8:20 AM55 °FOvercast.7 mph88%30.15 "HgN/A
Weather by CustomWeather, © 2016

See weather overviewHow to use our weather pages